Content
SEND FEEDBACK

Daily
Averages
Monthly
Summary
United States of America

GHENT, MINNESOTA


Home > North America > United States > Minnesota
Elevation: 1141 feet     Latitude: 44 28N     Longitude: 095 46W

WEATHER
 
SELECT A DAY
Number of Records: 461,403;   Date Range: 1/1/95 - 7/7/14
 
SHARE

PRINT THIS DATA

[ ← Previous Day ]
WEATHER ALMANAC - FEBRUARY 13, 2013
[ Next Day → ]
[ °C ]   °F
Weather ElementAverageHighLow
Temperature32.2 °F37.4 °F (10:55 am)24.8 °F (12:35 am)
Dewpoint24.3 °F28.4 °F (2:15 pm)17.6 °F (12:35 am)
Humidity72.8 %86 % (10:55 pm)60 % (10:55 am)
Barometer29.67 in29.80 in (12:35 am)29.56 in (5:15 pm)
Wind Speed13.7 mph25.3 mph (9:15 pm)
Wind Gust31.1 mph (9:55 pm)
Weather ElementAverage
Visibility9.9 mi
Wind DirectionWSW (256.7 °)

Weather ElementTotal
Precipitation---
Heating Degree Days33.9 (Base 65)
Averaged from 70 records on February 13, 2013
WEATHER CONDITIONS BREAKOUT
WIND DIRECTION BREAKOUT
WEATHER BY HOUR - FEBRUARY 13, 2013
[ °C ]   °F
Local TimeTemperatureDewpointHumidityBarometerVisibilityWind DirectionWind SpeedGust SpeedPrecipitationEventsConditions
12:35 AM24.8 °F17.6 °F74 %29.80 in10.0 miWest (280°)11.5 mphOvercast
12:55 AM24.8 °F19.4 °F80 %29.80 in10.0 miWest (270°)12.7 mphOvercast
1:15 AM24.8 °F19.4 °F80 %29.79 in10.0 miWest (270°)12.7 mphOvercast
1:35 AM26.6 °F19.4 °F74 %29.79 in10.0 miWest (280°)11.5 mphOvercast
1:55 AM26.6 °F19.4 °F74 %29.79 in10.0 miWest (280°)11.5 mphOvercast
2:15 AM26.6 °F19.4 °F74 %29.79 in10.0 miWest (280°)12.7 mphOvercast
2:35 AM26.6 °F19.4 °F74 %29.79 in10.0 miWest (270°)10.4 mphOvercast
2:55 AM26.6 °F21.2 °F80 %29.78 in10.0 miWest (270°)10.4 mphOvercast
3:15 AM26.6 °F19.4 °F74 %29.78 in10.0 miWest (270°)10.4 mphOvercast
3:35 AM26.6 °F21.2 °F80 %29.77 in10.0 miWest (280°)8.1 mphOvercast
3:55 AM28.4 °F21.2 °F74 %29.77 in10.0 miWest (280°)10.4 mphOvercast
4:15 AM26.6 °F21.2 °F80 %29.76 in10.0 miWest (270°)8.1 mphOvercast
4:35 AM26.6 °F21.2 °F80 %29.76 in10.0 miWest (270°)8.1 mphOvercast
4:55 AM26.6 °F21.2 °F80 %29.75 in10.0 miWest (260°)6.9 mphOvercast
5:15 AM26.6 °F19.4 °F74 %29.75 in10.0 miWest (270°)6.9 mphScattered Clouds
5:35 AM26.6 °F21.2 °F80 %29.74 in10.0 miWest (260°)5.8 mphScattered Clouds
5:55 AM26.6 °F21.2 °F80 %29.74 in10.0 miWSW (250°)6.9 mphOvercast
6:15 AM26.6 °F19.4 °F74 %29.73 in10.0 miSW (220°)5.8 mphMostly Cloudy
6:35 AM26.6 °F19.4 °F74 %29.72 in10.0 miWSW (240°)9.2 mphPartly Cloudy
6:55 AM26.6 °F19.4 °F74 %29.72 in10.0 miSW (230°)11.5 mphMostly Cloudy
7:15 AM28.4 °F19.4 °F69 %29.72 in10.0 miWSW (240°)12.7 mphMostly Cloudy
7:35 AM26.6 °F19.4 °F74 %29.71 in10.0 miWSW (250°)16.1 mphOvercast
7:55 AM26.6 °F19.4 °F74 %29.72 in10.0 miSW (230°)10.4 mphScattered Clouds
8:15 AM26.6 °F19.4 °F74 %29.71 in10.0 miWSW (240°)11.5 mphClear
8:35 AM28.4 °F21.2 °F74 %29.70 in10.0 miWSW (240°)15.0 mphClear
8:55 AM30.2 °F21.2 °F69 %29.69 in10.0 miSW (230°)16.1 mphClear
9:15 AM33.8 °F23.0 °F65 %29.68 in10.0 miSW (230°)16.1 mphClear
9:35 AM33.8 °F24.8 °F70 %29.68 in10.0 miWSW (240°)15.0 mphClear
9:55 AM35.6 °F24.8 °F65 %29.68 in10.0 miWSW (240°)15.0 mphClear
10:15 AM35.6 °F24.8 °F65 %29.67 in10.0 miWSW (240°)16.1 mphClear
10:35 AM35.6 °F24.8 °F65 %29.67 in10.0 miWSW (240°)13.8 mphClear
10:55 AM37.4 °F24.8 °F60 %29.66 in10.0 miWSW (250°)20.7 mphClear
11:15 AM35.6 °F26.6 °F70 %29.66 in10.0 miWSW (240°)20.7 mphMostly Cloudy
11:35 AM35.6 °F24.8 °F65 %29.66 in10.0 miWSW (240°)17.3 mph21.9 mphMostly Cloudy
11:55 AM35.6 °F24.8 °F65 %29.65 in10.0 miWSW (240°)18.4 mphClear
12:15 PM35.6 °F24.8 °F65 %29.64 in10.0 miSW (230°)16.1 mphClear
12:55 PM35.6 °F24.8 °F65 %29.62 in10.0 miWSW (240°)19.6 mphScattered Clouds
1:15 PM35.6 °F26.6 °F70 %29.63 in10.0 miWest (260°)15.0 mphOvercast
1:35 PM35.6 °F26.6 °F70 %29.62 in10.0 miWest (260°)11.5 mphOvercast
1:55 PM35.6 °F26.6 °F70 %29.62 in10.0 miWest (280°)5.8 mphOvercast
2:15 PM35.6 °F28.4 °F75 %29.61 in10.0 miWSW (240°)5.8 mphOvercast
2:35 PM35.6 °F28.4 °F75 %29.60 in10.0 miCalmMostly Cloudy
2:55 PM35.6 °F26.6 °F70 %29.59 in10.0 miSSW (210°)4.6 mphMostly Cloudy
3:15 PM35.6 °F28.4 °F75 %29.58 in10.0 miSSW (200°)8.1 mphMostly Cloudy
3:35 PM35.6 °F28.4 °F75 %29.58 in10.0 miCalmOvercast
3:55 PM37.4 °F26.6 °F65 %29.59 in10.0 miSW (230°)10.4 mphOvercast
4:15 PM35.6 °F26.6 °F70 %29.59 in10.0 miWSW (240°)15.0 mphOvercast
4:35 PM35.6 °F26.6 °F70 %29.57 in10.0 miWSW (240°)12.7 mphOvercast
4:55 PM35.6 °F26.6 °F70 %29.57 in10.0 miWSW (240°)16.1 mphOvercast
5:15 PM37.4 °F28.4 °F70 %29.56 in10.0 miWSW (240°)19.6 mphOvercast
5:35 PM37.4 °F28.4 °F70 %29.56 in10.0 miWest (260°)15.0 mphOvercast
5:55 PM37.4 °F28.4 °F70 %29.57 in10.0 miWSW (250°)12.7 mphOvercast
6:15 PM37.4 °F28.4 °F70 %29.57 in10.0 miWest (270°)11.5 mphOvercast
6:35 PM37.4 °F28.4 °F70 %29.57 in10.0 miWNW (290°)12.7 mphOvercast
6:55 PM37.4 °F28.4 °F70 %29.57 in10.0 miWNW (290°)13.8 mphOvercast
7:15 PM37.4 °F28.4 °F70 %29.57 in10.0 miWNW (290°)12.7 mphOvercast
7:35 PM37.4 °F28.4 °F70 %29.58 in10.0 miWNW (290°)15.0 mphOvercast
7:55 PM35.6 °F28.4 °F75 %29.58 in10.0 miWest (280°)15.0 mphOvercast
8:15 PM37.4 °F28.4 °F70 %29.58 in10.0 miWNW (290°)17.3 mphOvercast
8:35 PM37.4 °F28.4 °F70 %29.58 in10.0 miWNW (290°)19.6 mphOvercast
8:55 PM37.4 °F28.4 °F70 %29.58 in10.0 miWNW (300°)19.6 mphOvercast
9:15 PM35.6 °F28.4 °F75 %29.59 in10.0 miNW (310°)25.3 mph28.8 mphOvercast
9:35 PM35.6 °F28.4 °F75 %29.61 in10.0 miNW (320°)23.0 mph29.9 mphOvercast
9:55 PM33.8 °F26.6 °F75 %29.62 in10.0 miNW (320°)25.3 mph31.1 mphOvercast
10:15 PM32.0 °F26.6 °F80 %29.63 in10.0 miNW (320°)24.2 mph29.9 mphOvercast
10:35 PM32.0 °F26.6 °F80 %29.64 in10.0 miNW (320°)23.0 mph26.5 mphOvercast
10:55 PM30.2 °F26.6 °F86 %29.65 in10.0 miNW (320°)20.7 mph31.1 mphOvercast
11:15 PM30.2 °F24.8 °F80 %29.65 in9.0 miNW (320°)21.9 mphOvercast
11:35 PM30.2 °F24.8 °F80 %29.66 in10.0 miNW (320°)21.9 mphOvercast
11:55 PM30.2 °F24.8 °F80 %29.68 in6.0 miNW (320°)23.0 mphOvercast
Hourly data recorded from KMML, located miles away from Ghent, Minnesota







STORIES FROM OUR PARTNERS